Location: Belfast
(54.5830°N, 5.9330°W)
Time: 02:43:09
(UTC+00:00)

ISS - Pass Details

Date: 02 February 2021
Orbit: 417 x 422 km, 51.6° (Epoch: 25 February)

Event Time Altitude Azimuth Distance (km) Brightness Sun altitude
Rises 18:36:25 0° 276° (W) 2,378 1.7 -13.3°
Reaches altitude 10° 18:38:42 10° 264° (W) 1,512 0.5 -13.6°
Maximum altitude 18:41:38 27° 204° (SSW) 843 -1.9 -14.0°
Drops below altitude 10° 18:44:34 10° 144° (SE) 1,509 -1.2 -14.5°
Enters shadow 18:44:40 10° 144° (SE) 1,544 -1.2 -14.5°
